Regional Weather Roundup
Issued by NWS

Home | Current Version | Previous Version | Graphics & Text | Print | Product List | Glossary On
Versions: 1 2 3 4 5 6 7 8 9 10 11 12 13 14 15 16 17 18 19 20 21 22 23 24 25 26 27 28 29 30 31 32 33 34 35 36 37 38 39 40 41 42 43 44 45 46 47 48 49 50
673
ASUS45 KBOI 240010
RWRID

IDAHO REGIONAL WEATHER ROUNDUP
NATIONAL WEATHER SERVICE BOISE ID
500 PM MST THU NOV 23 2017

NOTE: "FAIR" INDICATES FEW OR NO CLOUDS BELOW 12000 FEET
WITH NO SIGNIFICANT WEATHER AND/OR OBSTRUCTIONS TO VISIBILITY

IDZ012-014-240100-
SOUTHWEST IDAHO


CITY           SKY/WX    TMP DP  RH WIND       PRES   REMARKS
BOISE          MOCLDY    62  44  51 SE13      29.92F
CALDWELL       CLOUDY    62  50  64 E8        29.91F
MOUNTAIN HOME  CLOUDY    60  52  75 E10       29.95F
$$

IDZ016-017-240100-
SOUTHCENTRAL IDAHO


CITY           SKY/WX    TMP DP  RH WIND       PRES   REMARKS
BURLEY         LGT RAIN  59  45  59 W7G18     30.04R
JEROME         CLOUDY    56  46  69 S6        30.01F
TWIN FALLS     CLOUDY    58  45  62 S8        30.02F
$$

IDZ019>023-240100-
SOUTHEAST IDAHO


CITY           SKY/WX    TMP DP  RH WIND       PRES   REMARKS
IDAHO FALLS    CLEAR     55  43  63 SW16      30.01S
POCATELLO      CLOUDY    59  40  49 S16       30.02F
REXBURG        CLOUDY    54  40  59 SW14      30.00R
$$

IDZ006-010-011-018-031-032-240100-
CENTRAL IDAHO MOUNTAINS


CITY           SKY/WX    TMP DP  RH WIND       PRES   REMARKS
MCCALL         CLOUDY    52  41  66 S13G25    29.91F
HAILEY         PTCLDY    52  41  66 SE5       30.05F
STANLEY          N/A     51  32  48 VRB7      30.04F
SALMON         CLEAR     53  38  56 W5        29.84F
CHALLIS        PTCLDY    58  32  37 SW8       29.93F
$$

IDZ002-004-006-007-026-240100-
NORTHERN IDAHO


CITY           SKY/WX    TMP DP  RH WIND       PRES   REMARKS
LEWISTON       LGT RAIN  59  52  77 W10G22    29.77S
LOWELL           N/A     48  48 100 CALM      29.81F
COEUR D`ALENE  CLOUDY    54  50  86 SW18G24   29.67F
MULLAN PASS    LGT RAIN  41  37  86 W15G38    29.68S
$$




USA.gov is the U.S. government's official web portal to all federal, state and local government web resources and services.